Pompano Beach, FL

9:56 PM EDT on June 27, 2017 (GMT -0400)
Pompano Beach

Weather History for KPMP - November, 2012

Change the Weather History Date:

Wednesday, November 7, 2012

  Actual Average Record
Temperature  
Mean Temperature 65 °F -  
Max Temperature 71 °F 82 °F 90 °F (1975)
Min Temperature 57 °F 65 °F 48 °F (1954)
Growing Degree Days 15 (Base 50)    
Moisture  
Dew Point 56 °F    
Average Humidity 74    
Maximum Humidity 100    
Minimum Humidity 49    
Precipitation  
Precipitation 0.00 in - - ()
Sea Level Pressure  
Sea Level Pressure 29.92 in    
Wind  
Wind Speed 9 mph (NW)    
Max Wind Speed 18 mph    
Max Gust Speed 26 mph    
Visibility 10 miles    
Events      
Averages and records for this station are not official NWS values.
T = Trace of Precipitation, MM = Missing Value Source: NWS Daily Summary

Daily Weather History Graph

Daily Weather History Graph

Search for Another Location

Airport or City:

Trip Planner

Search our weather history database for the weather conditions in past years. The results will help you decide how hot, cold, wet, or windy it might be!

Date:

Astronomy

Nov. 07, 2012 Rise Set
Actual Time 6:33 AM EST 5:34 PM EST
Civil Twilight 6:09 AM EST 5:58 PM EST
Nautical Twilight 5:42 AM EST 6:25 PM EST
Astronomical Twilight 5:14 AM EST 6:53 PM EST
Moon 12:05 AM EST (11/7) 1:06 PM EST (11/7)
Length of Visible Light 11h 48m
Length of Day
11h 00m
Last Quarter, 43% of the Moon is Illuminated
Nov 7
Last Quarter
Nov 13
New
Nov 20
First Quarter
Nov 28
Full
Dec 6
Last Quarter

Hourly Weather History & Observations

Time (EST) Temp. Dew Point Humidity Pressure Visibility Wind Dir Wind Speed Gust Speed Precip Events Conditions
12:53 AM 68.0 °F 66.0 °F 93% 29.87 in 10.0 mi West 3.5 mph - N/A   Partly Cloudy
1:53 AM 66.9 °F 66.0 °F 97% 29.86 in 10.0 mi West 4.6 mph - N/A   Partly Cloudy
2:53 AM 66.9 °F 66.9 °F 100% 29.86 in 10.0 mi WNW 9.2 mph - N/A   Mostly Cloudy
3:53 AM 64.9 °F 64.9 °F 100% 29.86 in 10.0 mi WNW 6.9 mph - N/A   Scattered Clouds
4:53 AM 63.0 °F 62.1 °F 97% 29.88 in 10.0 mi NW 8.1 mph - N/A   Clear
5:53 AM 62.1 °F 61.0 °F 96% 29.89 in 10.0 mi NW 5.8 mph - N/A   Partly Cloudy
6:53 AM 61.0 °F 61.0 °F 100% 29.91 in 10.0 mi NW 8.1 mph - N/A   Clear
7:53 AM 64.0 °F 60.1 °F 87% 29.93 in 10.0 mi NW 11.5 mph - N/A   Clear
8:53 AM 66.0 °F 59.0 °F 78% 29.95 in 10.0 mi NW 15.0 mph - N/A   Clear
9:53 AM 68.0 °F 55.9 °F 65% 29.95 in 10.0 mi NNW 17.3 mph 25.3 mph N/A   Clear
10:53 AM 70.0 °F 53.1 °F 55% 29.94 in 10.0 mi NW 17.3 mph 26.5 mph N/A   Clear
11:53 AM 71.1 °F 52.0 °F 51% 29.92 in 10.0 mi NW 15.0 mph 23.0 mph N/A   Partly Cloudy
12:53 PM 70.0 °F 53.1 °F 55% 29.90 in 10.0 mi NNW 16.1 mph 25.3 mph N/A   Scattered Clouds
1:53 PM 68.0 °F 54.0 °F 61% 29.88 in 10.0 mi NW 15.0 mph 24.2 mph N/A   Scattered Clouds
2:53 PM 71.1 °F 52.0 °F 51% 29.87 in 10.0 mi West 18.4 mph 26.5 mph N/A   Scattered Clouds
3:53 PM 71.1 °F 51.1 °F 49% 29.87 in 10.0 mi WNW 13.8 mph - N/A   Partly Cloudy
4:53 PM 68.0 °F 51.1 °F 55% 29.88 in 10.0 mi WNW 12.7 mph - N/A   Partly Cloudy
6:53 PM 64.0 °F 52.0 °F 65% 29.92 in 10.0 mi NW 6.9 mph - N/A   Clear
7:53 PM 63.0 °F 52.0 °F 67% 29.95 in 10.0 mi NW 10.4 mph - N/A   Clear
8:53 PM 61.0 °F 52.0 °F 72% 29.98 in 10.0 mi NW 6.9 mph - N/A   Clear
9:53 PM 60.1 °F 51.1 °F 72% 29.99 in 10.0 mi WNW 8.1 mph - N/A   Clear
10:53 PM 59.0 °F 50.0 °F 72% 30.00 in 10.0 mi NW 8.1 mph - N/A   Clear
11:53 PM 57.9 °F 50.0 °F 75% 29.99 in 10.0 mi NNW 8.1 mph - N/A   Clear